Hourly Weather Kozly

Today, 21 October, Wednesday

Time Temperature Precipitation Wind Pressure Humidity
00:00 +2°C° 0 mm 2 mps 750 mmHg 84%
01:00 +2°C° 0 mm 2 mps 750 mmHg 85%
02:00 +2°C° 0 mm 2 mps 750 mmHg 85%
03:00 +2°C° 0 mm 2 mps 749 mmHg 85%
04:00 +2°C° 0 mm 2 mps 749 mmHg 85%
05:00 +1°C° 0 mm 3 mps 748 mmHg 85%
06:00 +2°C° 0 mm 3 mps 748 mmHg 84%
07:00 +2°C° 0 mm 3 mps 748 mmHg 84%
08:00 +1°C° 0 mm 4 mps 747 mmHg 84%
09:00 +1°C° 0.7 mm 4 mps 747 mmHg 86%
10:00 +3°C° 0.7 mm 4 mps 747 mmHg 88%
11:00 +2°C° 0.7 mm 5 mps 746 mmHg 90%
12:00 +3°C° 0.5 mm 4 mps 746 mmHg 91%
13:00 +4°C° 0.5 mm 4 mps 746 mmHg 91%
14:00 +4°C° 0.5 mm 3 mps 745 mmHg 92%
15:00 +4°C° 0 mm 3 mps 745 mmHg 93%
16:00 +4°C° 0 mm 3 mps 745 mmHg 94%
17:00 +5°C° 0 mm 2 mps 744 mmHg 94%
18:00 +5°C° 0 mm 2 mps 744 mmHg 95%
19:00 +5°C° 0 mm 2 mps 745 mmHg 95%
20:00 +6°C° 0 mm 1 mps 745 mmHg 96%
21:00 +5°C° 0 mm 2 mps 745 mmHg 96%
22:00 +5°C° 0 mm 2 mps 745 mmHg 96%
23:00 +5°C° 0 mm 2 mps 744 mmHg 96%

Tomorrow, 22 October, Thursday

Time Temperature Precipitation Wind Pressure Humidity
00:00 +5°C° 0 mm 2 mps 745 mmHg 95%
01:00 +5°C° 0 mm 2 mps 745 mmHg 95%
02:00 +5°C° 0 mm 2 mps 745 mmHg 95%
03:00 +4°C° 0 mm 3 mps 744 mmHg 95%
04:00 +4°C° 0 mm 3 mps 744 mmHg 95%
05:00 +4°C° 0 mm 3 mps 743 mmHg 95%
06:00 +4°C° 0.4 mm 4 mps 743 mmHg 94%
07:00 +4°C° 0.4 mm 4 mps 743 mmHg 94%
08:00 +4°C° 0.4 mm 4 mps 743 mmHg 94%
09:00 +5°C° 0.5 mm 5 mps 742 mmHg 94%
10:00 +5°C° 0.5 mm 5 mps 742 mmHg 94%
11:00 +6°C° 0.5 mm 5 mps 741 mmHg 94%
12:00 +7°C° 0 mm 5 mps 741 mmHg 90%
13:00 +8°C° 0 mm 5 mps 740 mmHg 87%
14:00 +9°C° 0 mm 5 mps 740 mmHg 83%
15:00 +9°C° 0 mm 5 mps 740 mmHg 85%
16:00 +9°C° 0 mm 5 mps 739 mmHg 86%
17:00 +9°C° 0 mm 5 mps 739 mmHg 88%
18:00 +10°C° 0 mm 5 mps 739 mmHg 86%
19:00 +10°C° 0 mm 6 mps 739 mmHg 85%
20:00 +11°C° 0 mm 7 mps 739 mmHg 84%
21:00 +11°C° 0 mm 7 mps 739 mmHg 84%
22:00 +11°C° 0 mm 7 mps 739 mmHg 84%
23:00 +11°C° 0 mm 7 mps 739 mmHg 84%

Day after tomorrow, 23 October, Friday

Time Temperature Precipitation Wind Pressure Humidity
00:00 +11°C° 0 mm 6 mps 739 mmHg 85%
01:00 +10°C° 0 mm 6 mps 740 mmHg 86%
02:00 +10°C° 0 mm 5 mps 740 mmHg 87%
03:00 +10°C° 0 mm 5 mps 740 mmHg 89%
04:00 +9°C° 0 mm 5 mps 740 mmHg 91%
05:00 +9°C° 0 mm 5 mps 740 mmHg 92%
06:00 +9°C° 0 mm 5 mps 740 mmHg 93%
07:00 +9°C° 0 mm 5 mps 740 mmHg 93%
08:00 +10°C° 0 mm 4 mps 740 mmHg 94%
09:00 +10°C° 0 mm 5 mps 740 mmHg 90%
10:00 +12°C° 0 mm 5 mps 740 mmHg 86%
11:00 +13°C° 0 mm 5 mps 739 mmHg 83%
12:00 +12°C° 0.2 mm 5 mps 739 mmHg 84%
13:00 +12°C° 0.2 mm 5 mps 739 mmHg 85%
14:00 +11°C° 0.2 mm 6 mps 738 mmHg 87%
15:00 +12°C° 0.9 mm 5 mps 738 mmHg 89%
16:00 +12°C° 0.9 mm 5 mps 737 mmHg 90%
17:00 +12°C° 0.9 mm 5 mps 737 mmHg 92%
18:00 +12°C° 0.6 mm 5 mps 737 mmHg 92%
19:00 +12°C° 0.6 mm 5 mps 737 mmHg 92%
20:00 +12°C° 0.6 mm 5 mps 737 mmHg 92%
21:00 +10°C° 0.2 mm 5 mps 737 mmHg 92%
22:00 +11°C° 0.2 mm 4 mps 737 mmHg 93%
23:00 +10°C° 0.2 mm 4 mps 738 mmHg 93%

24 October, Saturday

Time Temperature Precipitation Wind Pressure Humidity
00:00 +10°C° 0 mm 4 mps 738 mmHg 94%
01:00 +10°C° 0 mm 4 mps 738 mmHg 94%
02:00 +8°C° 0 mm 4 mps 738 mmHg 94%
03:00 +9°C° 0 mm 3 mps 738 mmHg 95%
04:00 +8°C° 0 mm 3 mps 738 mmHg 95%
05:00 +8°C° 0 mm 3 mps 738 mmHg 96%
06:00 +8°C° 0 mm 3 mps 739 mmHg 93%
07:00 +8°C° 0 mm 3 mps 739 mmHg 91%
08:00 +8°C° 0 mm 3 mps 739 mmHg 89%
09:00 +9°C° 0 mm 3 mps 739 mmHg 87%
10:00 +9°C° 0 mm 3 mps 739 mmHg 84%
11:00 +10°C° 0 mm 3 mps 740 mmHg 81%
12:00 +10°C° 0 mm 3 mps 739 mmHg 80%
13:00 +10°C° 0 mm 2 mps 739 mmHg 79%
14:00 +12°C° 0 mm 2 mps 739 mmHg 78%
15:00 +10°C° 0 mm 2 mps 738 mmHg 83%
16:00 +10°C° 0 mm 2 mps 738 mmHg 88%
17:00 +9°C° 0 mm 2 mps 737 mmHg 92%
18:00 +9°C° 0.4 mm 3 mps 737 mmHg 93%
19:00 +9°C° 0.4 mm 3 mps 737 mmHg 94%
20:00 +10°C° 0.4 mm 3 mps 737 mmHg 95%
21:00 +8°C° 2.4 mm 4 mps 736 mmHg 94%
22:00 +8°C° 2.4 mm 4 mps 736 mmHg 93%
23:00 +8°C° 2.4 mm 5 mps 736 mmHg 93%

25 October, Sunday

Time Temperature Precipitation Wind Pressure Humidity
00:00 +8°C° 1.2 mm 5 mps 736 mmHg 92%
01:00 +8°C° 1.2 mm 5 mps 736 mmHg 92%
02:00 +8°C° 1.2 mm 5 mps 736 mmHg 91%
03:00 +7°C° 0.3 mm 5 mps 737 mmHg 90%
04:00 +7°C° 0.3 mm 5 mps 737 mmHg 88%
05:00 +7°C° 0.3 mm 6 mps 738 mmHg 86%
06:00 +7°C° 0 mm 5 mps 739 mmHg 86%
07:00 +7°C° 0 mm 5 mps 739 mmHg 85%
08:00 +7°C° 0 mm 5 mps 740 mmHg 84%
09:00 +7°C° 0 mm 5 mps 741 mmHg 82%
10:00 +8°C° 0 mm 5 mps 742 mmHg 80%
11:00 +8°C° 0 mm 5 mps 743 mmHg 78%
12:00 +8°C° 0 mm 5 mps 743 mmHg 77%
13:00 +8°C° 0 mm 5 mps 744 mmHg 76%
14:00 +8°C° 0 mm 4 mps 744 mmHg 75%
15:00 +8°C° 0 mm 4 mps 745 mmHg 77%
16:00 +9°C° 0 mm 3 mps 745 mmHg 79%
17:00 +8°C° 0 mm 3 mps 746 mmHg 82%
18:00 +8°C° 0 mm 2 mps 746 mmHg 85%
19:00 +7°C° 0 mm 2 mps 746 mmHg 88%
20:00 +6°C° 0 mm 2 mps 747 mmHg 92%
21:00 +6°C° 0 mm 2 mps 747 mmHg 92%
22:00 +6°C° 0 mm 1 mps 747 mmHg 93%
23:00 +6°C° 0 mm 1 mps 748 mmHg 93%

26 October, Monday

Time Temperature Precipitation Wind Pressure Humidity
00:00 +6°C° 0 mm 1 mps 748 mmHg 93%
01:00 +5°C° 0 mm 2 mps 748 mmHg 93%
02:00 +4°C° 0 mm 2 mps 748 mmHg 94%
03:00 +4°C° 0 mm 2 mps 748 mmHg 94%
04:00 +4°C° 0 mm 2 mps 749 mmHg 94%
05:00 +4°C° 0 mm 2 mps 749 mmHg 94%
06:00 +4°C° 0 mm 2 mps 749 mmHg 94%
07:00 +4°C° 0 mm 2 mps 749 mmHg 93%
08:00 +4°C° 0 mm 2 mps 749 mmHg 93%
09:00 +5°C° 0 mm 3 mps 749 mmHg 88%
10:00 +7°C° 0 mm 3 mps 749 mmHg 83%
11:00 +7°C° 0 mm 4 mps 749 mmHg 78%
12:00 +8°C° 0 mm 4 mps 749 mmHg 77%
13:00 +8°C° 0 mm 4 mps 749 mmHg 75%
14:00 +10°C° 0 mm 4 mps 749 mmHg 74%
15:00 +8°C° 0 mm 3 mps 749 mmHg 79%
16:00 +7°C° 0 mm 3 mps 749 mmHg 84%
17:00 +5°C° 0 mm 3 mps 749 mmHg 89%
18:00 +5°C° 0 mm 3 mps 749 mmHg 90%
19:00 +5°C° 0 mm 3 mps 749 mmHg 90%
20:00 +5°C° 0 mm 3 mps 749 mmHg 91%
21:00 +4°C° 0 mm 3 mps 749 mmHg 91%
22:00 +4°C° 0 mm 3 mps 749 mmHg 92%
23:00 +4°C° 0 mm 3 mps 749 mmHg 92%

27 October, Tuesday

Time Temperature Precipitation Wind Pressure Humidity
00:00 +4°C° 0 mm 3 mps 749 mmHg 92%
01:00 +3°C° 0 mm 3 mps 749 mmHg 93%
02:00 +3°C° 0 mm 3 mps 749 mmHg 93%
03:00 +3°C° 0 mm 3 mps 749 mmHg 93%
04:00 +3°C° 0 mm 3 mps 749 mmHg 93%
05:00 +2°C° 0 mm 3 mps 749 mmHg 93%
06:00 +3°C° 0 mm 3 mps 749 mmHg 92%
07:00 +3°C° 0 mm 4 mps 749 mmHg 91%
08:00 +3°C° 0 mm 4 mps 749 mmHg 90%
09:00 +4°C° 0 mm 4 mps 749 mmHg 85%
10:00 +6°C° 0 mm 4 mps 749 mmHg 81%
11:00 +7°C° 0 mm 5 mps 749 mmHg 76%
12:00 +8°C° 0 mm 5 mps 749 mmHg 75%
13:00 +8°C° 0 mm 4 mps 749 mmHg 75%
14:00 +10°C° 0 mm 4 mps 749 mmHg 74%
15:00 +8°C° 0 mm 4 mps 749 mmHg 77%
16:00 +7°C° 0 mm 4 mps 749 mmHg 81%
17:00 +6°C° 0 mm 4 mps 749 mmHg 84%
18:00 +6°C° 0 mm 4 mps 749 mmHg 83%
19:00 +6°C° 0 mm 4 mps 750 mmHg 82%
20:00 +6°C° 0 mm 4 mps 750 mmHg 81%
21:00 +6°C° 0 mm 4 mps 750 mmHg 82%
22:00 +5°C° 0 mm 4 mps 750 mmHg 82%
23:00 +5°C° 0 mm 3 mps 750 mmHg 82%
Show more